STARLINK-3827, 52370

Orbit data source: Space-Track

STARLINK-3827, 52370 is a payload satellite owned by SpaceX/Seattle (US) in LEO that was launched on Fri, 29 Apr 2022 UTC via an FALCON 9 launch vehicle from the Air Force Eastern Test Range (AFETR). Payload-class satellites include a variety of spacecraft equipped with specific instruments for various scientific and technological missions. These include communications satellites like Starlink; space stations such as the ISS; scientific satellites like the Hubble; Earth observation satellites from companies like Planet Labs, Umbra, and HawkEye 360; GPS; miniature CubeSats for education and research; and military/defense satellites.

Loading next visibility...
Identifier
52370, 2022-045AR
Orbit
LEO
Country
Flag of USUS
Related business
Manufacturer
SpaceX/Seattle
Mission
Operational Commercial Communications
Bus & Motor
STARLINK, Unknown motor
Mass
297 kg wet, ~275 kg dry
Launch date (UTC)
2022-04-29 (4 years ago)
Launch vehicle
FALCON 9
Launch site
Air Force Eastern Test Range (AFETR)
Object type
Payload
Rocket body
Debris
Shape & HBR
Box + 1 Pan, 10.1 m
Radar Cross Section
11.087 m², Large (>1 m²)

Expand to show TLE details & history
Last TLE update: 7 hours ago

TLE from 7 hours ago
0 STARLINK-3827
1 52370U 22045AR  26119.84286046 -.00001361  00000-0 -67458-4 0  9994
2 52370  53.2184 319.4965 0001208  77.8520 282.2607 15.08842345223643
Epoch: 2026-04-29T20:13Z
TLE epoch observation values (Epoch: 2026-04-29T20:13:43.143Z)
Latitude
-0.00007°
Longitude
158.26867°
Altitude
540.456 km
Speed
7.593 km/s
True Right ascension
21h 17m 59s
True Declination
0° 00' 00"
Sunlit
Object was in daylight at epoch
Visualization orbit readout
Latitude
Unknown
Longitude
Unknown
Altitude
Unknown
Speed
Unknown
Apparent Right ascension
Unknown
Apparent Declination
Unknown
Sunlit
N/A
Visualization observer readout
Local Sidereal Time
10:29:28
Azimuth
Unknown
Elevation
Unknown
Doppler factor
Unknown
Orbital elements
Apogee altitude
540.817 km
Perigee altitude
539.145 km
Semi-major axis
6,918.118 km
Eccentricity
0.00012
Inclination
53.2184°
RAAN
319.4965°
Arg. of periapsis
77.852°
True anomaly
282.24717°
Mean anomaly
282.2607°
Eccentric anomaly
282.25394°
Mean motion
3.77191 °/min
Orbital period
95.44 mins
BSTAR
-0.000067458
Loading maneuver chart data...
Computing Atmospheric mass density...
Loading historical data...
Loading historical data...
Loading historical data...
Loading historical data...
Loading historical data...
Loading historical data...
Loading historical data...

Documentation

Showing up to 5 results
|